Vertical_Velocity
-2 -1 1 2 1 -0 2 -0 4 5 1 1 5 0 0 1 1 0 0 1 1 2 2 1 -0 -0 1 -0 -0 -1 -1 -0 -1
-1 -0 -1 -2 -1 0 0 2 1 3 1 1 6 4 -3 -2 1 1 -0 1 2 1 1 1 1 0 -0 1 0 1 0 -1 -1
-0 -0 -1 -1 -1 1 1 -0 1 2 2 1 0 2 0 -1 1 2 1 -0 1 2 2 1 0 0 0 0 0 -1 -0 0 1
-4 -3 -2 -3 -2 -1 2 3 3 0 1 2 4 1 1 -0 0 1 3 1 1 -0 1 1 2 1 0 1 2 1 0 -0 -1
-4 -2 1 -2 -2 -1 -1 1 1 4 2 1 1 2 2 4 1 4 2 0 2 -1 -0 1 0 1 2 -2 -1 -0 1 1 0
-3 0 -0 1 -2 -0 -2 -1 -1 2 2 3 2 2 1 3 2 4 -5 3 1 2 -0 0 1 -0 -0 1 -1 -0 -0 1 1
-5 -3 -5 -5 -2 -2 3 -1 -2 -2 2 4 4 2 1 1 5 3 3 3 3 -1 -1 -0 1 1 -2 -1 -0 -0 -0 -0 0
-5 -2 -0 -1 -3 4 4 8 4 2 2 1 3 4 1 2 2 0 4 2 0 0 1 0 1 1 1 -0 0 -1 -0 1 0
1 -1 -3 -3 -3 -1 4 4 4 6 3 2 2 2 0 1 1 0 6 3 -0 1 1 -1 2 0 -1 -0 2 2 -0 1 -0
-3 -2 -5 -8 -6 -5 1 3 4 6 5 1 3 3 0 1 1 -0 8 0 0 1 1 0 -0 1 -0 0 0 -0 1 2 1
-4 -4 -5 -9 -6 -7 -2 1 2 4 4 4 1 1 2 -0 1 -1 1 1 -0 1 1 1 1 2 2 1 0 -2 0 1 1
-3 -2 -5 -6 -8 -4 -4 -2 4 0 0 2 2 1 -0 2 1 1 0 2 -2 1 -0 3 1 1 1 1 1 -1 -1 -0 1
-2 -3 -2 -5 -7 -2 -5 -2 1 -0 1 0 1 1 0 1 1 1 0 1 -0 0 2 -2 -0 -0 1 0 -0 -0 -1 -1 -0
-2 -2 -0 -2 -5 -4 -5 -4 -1 1 1 0 -1 1 -1 2 1 0 1 1 0 1 4 -1 0 -2 -3 -3 -2 -1 -1 -0 -1
-0 -2 -1 -2 -4 -4 -0 -4 -2 -2 -1 -1 -1 1 -3 -0 1 -0 1 2 1 -1 -0 -2 3 0 -2 -2 -3 -3 -1 -1 -0
1 1 -4 1 -2 -0 -2 2 -1 -4 -2 -1 -3 0 -3 -1 -0 1 1 0 1 1 -0 -1 -0 -2 -1 -0 -1 -0 -2 -2 -2
1 1 -2 -1 -1 -1 -0 -1 1 3 -0 -1 -1 -1 -2 -1 -2 0 0 -0 1 -1 -2 -2 -2 -0 -2 -1 2 0 -1 -1 -2
-0 -1 1 -1 -1 -1 -1 0 1 -2 1 1 1 -0 0 -5 -3 -2 -1 -1 -2 -2 -2 -2 -2 -2 -2 -1 1 -1 -0 -0 -2
0 1 1 0 -2 -2 -1 -2 -2 2 0 -1 0 -1 -2 -2 -3 -3 -1 -2 -1 -1 -1 -0 -1 1 -0 -1 2 -2 -2 -2 -2
0 1 0 1 1 0 -1 -1 -0 -3 -2 0 -1 -0 1 1 0 1 -0 -0 1 -0 -1 -0 -1 0 -2 -2 1 -0 0 0 -0
Height
5835 5833 5831 5830 5829 5828 5827 5825 5825 5824 5824 5823 5823 5823 5823 5823 5823 5823 5824 5824 5824 5825 5826 5826 5827 5828 5828 5829 5830 5830 5830 5830 5831
5828 5826 5824 5822 5821 5820 5819 5818 5817 5817 5817 5817 5816 5817 5817 5818 5818 5819 5820 5821 5821 5822 5823 5823 5823 5825 5825 5826 5827 5828 5828 5828 5828
5819 5817 5815 5813 5812 5811 5810 5809 5809 5809 5808 5809 5809 5811 5811 5811 5812 5813 5814 5815 5816 5817 5818 5819 5820 5821 5822 5823 5824 5824 5825 5825 5826
5811 5808 5805 5803 5800 5799 5798 5797 5798 5798 5798 5799 5800 5802 5803 5804 5806 5807 5808 5810 5811 5812 5813 5815 5816 5817 5818 5819 5820 5821 5822 5822 5823
5804 5800 5796 5793 5790 5787 5784 5784 5784 5785 5786 5787 5789 5792 5794 5796 5799 5800 5802 5803 5805 5806 5808 5809 5811 5812 5814 5815 5816 5817 5818 5818 5819
5795 5791 5785 5781 5777 5772 5770 5769 5768 5769 5772 5774 5777 5781 5784 5786 5789 5791 5794 5796 5798 5800 5801 5803 5804 5806 5808 5809 5811 5812 5813 5814 5814
5786 5780 5773 5767 5761 5755 5751 5749 5750 5752 5755 5760 5764 5768 5772 5775 5779 5782 5786 5789 5790 5792 5795 5797 5799 5801 5802 5803 5804 5805 5806 5807 5808
5775 5766 5758 5750 5741 5730 5726 5726 5729 5734 5738 5743 5749 5754 5759 5765 5769 5773 5777 5780 5783 5785 5787 5789 5791 5793 5796 5797 5798 5799 5800 5801 5802
5762 5753 5744 5733 5716 5702 5697 5701 5708 5715 5721 5728 5735 5742 5748 5754 5760 5764 5769 5772 5775 5777 5780 5782 5784 5786 5788 5790 5791 5792 5793 5794 5795
5753 5741 5729 5714 5696 5680 5672 5675 5685 5697 5707 5715 5722 5730 5737 5744 5750 5755 5761 5763 5767 5770 5772 5775 5777 5779 5781 5783 5784 5785 5786 5787 5788
5745 5733 5719 5703 5683 5665 5654 5655 5667 5681 5694 5704 5712 5721 5728 5735 5742 5748 5752 5756 5759 5763 5765 5767 5770 5772 5774 5776 5777 5778 5779 5780 5780
5739 5726 5713 5697 5678 5661 5648 5647 5655 5671 5684 5696 5704 5713 5721 5728 5734 5740 5745 5749 5752 5756 5758 5761 5763 5765 5767 5768 5769 5770 5771 5772 5772
5734 5723 5710 5695 5680 5665 5651 5647 5653 5666 5681 5691 5700 5708 5715 5722 5727 5733 5738 5742 5746 5749 5752 5754 5757 5758 5760 5761 5762 5762 5763 5763 5762
5730 5720 5709 5697 5685 5673 5660 5655 5659 5670 5681 5690 5697 5704 5711 5716 5722 5727 5732 5736 5739 5743 5745 5747 5750 5751 5753 5753 5754 5754 5753 5753 5752
5727 5718 5709 5700 5691 5682 5673 5669 5671 5677 5684 5690 5696 5701 5707 5713 5717 5722 5727 5730 5733 5736 5738 5740 5742 5743 5744 5744 5744 5744 5743 5742 5742
5723 5716 5709 5702 5695 5689 5684 5679 5679 5682 5685 5690 5695 5699 5705 5709 5713 5717 5721 5724 5727 5729 5731 5732 5734 5734 5735 5734 5734 5734 5734 5734 5734
5719 5714 5709 5702 5697 5692 5689 5687 5685 5685 5687 5689 5693 5697 5702 5706 5709 5712 5716 5718 5720 5722 5723 5724 5725 5726 5726 5726 5726 5726 5726 5726 5726
5715 5710 5706 5702 5696 5693 5691 5690 5688 5688 5689 5690 5692 5694 5698 5701 5704 5708 5710 5712 5714 5715 5716 5716 5717 5717 5717 5718 5719 5719 5718 5718 5718
5709 5706 5703 5700 5696 5692 5690 5689 5689 5688 5689 5690 5691 5693 5695 5698 5701 5702 5704 5705 5707 5708 5708 5709 5709 5709 5710 5711 5711 5710 5710 5709 5709
5704 5701 5699 5697 5695 5692 5689 5687 5687 5687 5687 5688 5689 5690 5691 5693 5695 5697 5698 5699 5700 5700 5700 5700 5701 5701 5702 5702 5703 5702 5701 5701 5701